Weather History for KPTK - September, 2012

Change the Weather History Date:

Sunday, September 30, 2012

  Actual Average Record
Temperature  
Mean Temperature 54 °F -  
Max Temperature 63 °F 64 °F 82 °F (2002)
Min Temperature 46 °F 44 °F 39 °F (1996)
Degree Days  
Heating Degree Days 11    
Growing Degree Days 4 (Base 50)    
Moisture  
Dew Point 45 °F    
Average Humidity 77    
Maximum Humidity 100    
Minimum Humidity 46    
Precipitation  
Precipitation 0.00 in - - ()
Sea Level Pressure  
Sea Level Pressure 29.94 in    
Wind  
Wind Speed 4 mph (NNE)    
Max Wind Speed 12 mph    
Max Gust Speed -    
Visibility 10 miles    
Events      
Averages and records for this station are not official NWS values.
T = Trace of Precipitation, MM = Missing Value Source: NWS Daily Summary

Daily Weather History Graph

Daily Weather History Graph

Search for Another Location

Airport or City:

Trip Planner

Search our weather history database for the weather conditions in past years. The results will help you decide how hot, cold, wet, or windy it might be!

Date:

Astronomy

Sep. 30, 2012 Rise Set
Actual Time 7:30 AM EDT 7:15 PM EDT
Civil Twilight 7:02 AM EDT 7:44 PM EDT
Nautical Twilight 6:29 AM EDT 8:16 PM EDT
Astronomical Twilight 5:56 AM EDT 8:49 PM EDT
Moon 7:16 PM EDT (9/30) 8:01 AM EDT (9/30)
Length of Visible Light 12h 41m
Length of Day
11h 45m
Full, 100% of the Moon is Illuminated
Sep 30
Full
Oct 8
Last Quarter
Oct 15
New
Oct 21
First Quarter
Oct 29
Full

Hourly Weather History & Observations

Time (EDT) Temp. Windchill Dew Point Humidity Pressure Visibility Wind Dir Wind Speed Gust Speed Precip Events Conditions
12:53 AM 51.1 °F - 46.9 °F 86% 29.95 in 10.0 mi Calm Calm - N/A   Scattered Clouds
1:53 AM 50.0 °F - 46.9 °F 89% 29.94 in 10.0 mi Calm Calm - N/A   Clear
2:53 AM 48.0 °F - 46.0 °F 93% 29.93 in 10.0 mi Calm Calm - N/A   Clear
3:53 AM 46.9 °F - 46.0 °F 97% 29.92 in 10.0 mi Calm Calm - N/A   Clear
4:53 AM 46.9 °F - 46.0 °F 97% 29.92 in 10.0 mi North 3.5 mph - N/A   Clear
5:53 AM 46.0 °F 43.9 °F 45.0 °F 96% 29.92 in 10.0 mi North 4.6 mph - N/A   Partly Cloudy
6:17 AM 46.4 °F 42.4 °F 46.4 °F 100% 29.92 in 10.0 mi North 8.1 mph - N/A   Scattered Clouds
6:53 AM 46.9 °F - 46.0 °F 97% 29.92 in 7.0 mi North 5.8 mph - N/A   Scattered Clouds
7:53 AM 46.0 °F - 45.0 °F 96% 29.93 in 10.0 mi Calm Calm - N/A   Partly Cloudy
8:53 AM 48.9 °F - 46.9 °F 93% 29.95 in 10.0 mi North 8.1 mph - N/A   Scattered Clouds
9:12 AM 50.0 °F - 46.4 °F 87% 29.94 in 10.0 mi North 8.1 mph - N/A   Mostly Cloudy
9:53 AM 53.6 °F - 48.2 °F 82% 29.95 in 10.0 mi North 9.2 mph - N/A   Scattered Clouds
10:17 AM 55.4 °F - 48.2 °F 77% 29.95 in 10.0 mi NNE 9.2 mph - N/A   Mostly Cloudy
10:53 AM 55.9 °F - 45.0 °F 67% 29.96 in 10.0 mi NNE 11.5 mph - N/A   Mostly Cloudy
11:53 AM 57.9 °F - 43.0 °F 58% 29.96 in 10.0 mi NNE 11.5 mph - N/A   Mostly Cloudy
12:40 PM 57.2 °F - 42.8 °F 59% 29.96 in 10.0 mi NE 6.9 mph - N/A   Mostly Cloudy
12:53 PM 57.9 °F - 44.1 °F 60% 29.97 in 10.0 mi NE 11.5 mph - N/A   Mostly Cloudy
1:53 PM 59.0 °F - 44.1 °F 58% 29.96 in 10.0 mi NNE 6.9 mph - N/A   Mostly Cloudy
2:53 PM 59.0 °F - 44.1 °F 58% 29.95 in 10.0 mi North 8.1 mph - N/A   Mostly Cloudy
3:53 PM 60.8 °F - 44.6 °F 55% 29.94 in 10.0 mi East 4.6 mph - N/A   Mostly Cloudy
4:53 PM 62.1 °F - 41.0 °F 46% 29.93 in 10.0 mi NNE 6.9 mph - N/A   Scattered Clouds
5:53 PM 60.1 °F - 43.0 °F 53% 29.93 in 10.0 mi NE 5.8 mph - N/A   Mostly Cloudy
6:53 PM 59.0 °F - 43.0 °F 55% 29.94 in 10.0 mi NNE 3.5 mph - N/A   Mostly Cloudy
7:53 PM 54.0 °F - 44.1 °F 69% 29.95 in 10.0 mi Calm Calm - N/A   Scattered Clouds
8:53 PM 52.0 °F - 45.0 °F 77% 29.96 in 10.0 mi North 5.8 mph - N/A   Mostly Cloudy
9:53 PM 50.0 °F - 44.1 °F 80% 29.98 in 10.0 mi North 3.5 mph - N/A   Scattered Clouds
10:53 PM 46.4 °F 45.2 °F 42.8 °F 87% 29.95 in 10.0 mi North 3.5 mph - N/A   Partly Cloudy
11:53 PM 48.0 °F - 44.1 °F 86% 29.96 in 10.0 mi Calm Calm - N/A   Partly Cloudy